UKUBE-1

Last updated on Wed Oct 29 2025 00:03:53 GMT+0000 (Coordinated Universal Time)

1 40074U 14037F 25301.49795562 .00013955 00000+0 90164-3 0 9993 2 40074 98.4103 276.5059 0001408 125.1847 234.9511 15.08365349613567
UTC large
Height (km)
Speed (km/s)
/
Latitude / Longitude
Inclination (degrees)
Orbital Period (minutes)
Azimuth
Elevation
Range (km)
Doppler Factor

Next 0 passes for location: London (51.5072 / 0.1276)

Sorry there are no passes over London.